Eurocargo Valencia — IBGZ — position and weather

sailwx.info

Track history (hours):
 
Tides and Currents Weather Stations Pressure Air Temp Water Temp Dewpoint Dewpoint Depression Visibility Wind Speed Wind Dir Waves Ship Positions

Eurocargo Valencia

Last reported at 2014-Nov-20 08:28 UTC. Time now 2014-Nov-21 08:31 UTC.
Position N 37°46' E 024°34'.

Length 196 m; draft 6.6 m.

Type: Cargo ship. MMSI: 247579000.

Date/timePositionNaut miles runAvg speedWind from/ knotsBaromVisibWave heightAir tempDewpointWater temp
2014-Nov-20 08:28N 37°46' E 024°34'1213.6
2014-Nov-20 07:33N 37°34' E 024°27'1414.2
2014-Nov-20 06:33N 37°23' E 024°17'1414.0
2014-Nov-20 05:33N 37°12' E 024°06'1613.9
2014-Nov-20 04:22N 36°59' E 023°53'1214.0
2014-Nov-20 03:31N 36°50' E 023°43'1514.0
2014-Nov-20 02:28N 36°39' E 023°31'  
2014-Nov-14 02:26N 36°28' E 023°17'1415.2
2014-Nov-14 01:33N 36°39' E 023°27'1515.3
2014-Nov-14 00:33N 36°52' E 023°37'1815.1
2014-Nov-13 23:20N 37°08' E 023°49'1215.0
2014-Nov-13 22:33N 37°18' E 023°56'1515.4
2014-Nov-13 21:33N 37°31' E 024°07'1515.0
2014-Nov-13 20:32N 37°43' E 024°19'1515.5
2014-Nov-13 19:33N 37°54' E 024°33'1714.9
2014-Nov-13 18:25N 38°08' E 024°44'245 5.1
2014-Nov-11 18:32N 40°26' E 029°05'1513.3
2014-Nov-11 17:23N 40°29' E 028°46'911.3
2014-Nov-11 16:33N 40°38' E 028°48'1414.2
2014-Nov-11 15:33N 40°41' E 029°06'1412.9
2014-Nov-11 14:30N 40°45' E 029°24'16 2.1
2014-Nov-11 07:12N 40°44' E 029°44'914.3
2014-Nov-11 06:33N 40°45' E 029°32'10 9.6
2014-Nov-11 05:32N 40°44' E 029°20'1313.2
2014-Nov-11 04:33N 40°44' E 029°03'1313.4
2014-Nov-11 03:33N 40°44' E 028°45'  
Track history (hours):
 
Tides and Currents Weather Stations Pressure Air Temp Water Temp Dewpoint Dewpoint Depression Visibility Wind Speed Wind Dir Waves Ship Positions

Eurocargo Valencia

Last reported at 2014-Nov-20 08:28 UTC. Time now 2014-Nov-21 08:31 UTC.
Position N 37°46' E 024°34'.

Length 196 m; draft 6.6 m.

Type: Cargo ship. MMSI: 247579000.

Date/timePositionNaut miles runAvg speedWind from/ knotsBaromVisibWave heightAir tempDewpointWater temp
2014-Nov-20 08:28N 37°46' E 024°34'1213.6
2014-Nov-20 07:33N 37°34' E 024°27'1414.2
2014-Nov-20 06:33N 37°23' E 024°17'1414.0
2014-Nov-20 05:33N 37°12' E 024°06'1613.9
2014-Nov-20 04:22N 36°59' E 023°53'1214.0
2014-Nov-20 03:31N 36°50' E 023°43'1514.0
2014-Nov-20 02:28N 36°39' E 023°31'  
2014-Nov-14 02:26N 36°28' E 023°17'1415.2
2014-Nov-14 01:33N 36°39' E 023°27'1515.3
2014-Nov-14 00:33N 36°52' E 023°37'1815.1
2014-Nov-13 23:20N 37°08' E 023°49'1215.0
2014-Nov-13 22:33N 37°18' E 023°56'1515.4
2014-Nov-13 21:33N 37°31' E 024°07'1515.0
2014-Nov-13 20:32N 37°43' E 024°19'1515.5
2014-Nov-13 19:33N 37°54' E 024°33'1714.9
2014-Nov-13 18:25N 38°08' E 024°44'245 5.1
2014-Nov-11 18:32N 40°26' E 029°05'1513.3
2014-Nov-11 17:23N 40°29' E 028°46'911.3
2014-Nov-11 16:33N 40°38' E 028°48'1414.2
2014-Nov-11 15:33N 40°41' E 029°06'1412.9
2014-Nov-11 14:30N 40°45' E 029°24'16 2.1
2014-Nov-11 07:12N 40°44' E 029°44'914.3
2014-Nov-11 06:33N 40°45' E 029°32'10 9.6
2014-Nov-11 05:32N 40°44' E 029°20'1313.2
2014-Nov-11 04:33N 40°44' E 029°03'1313.4
2014-Nov-11 03:33N 40°44' E 028°45'  

Dump ship's entire track history